Terminal Aerodrome Forecast
Issued by NWS

Home | Current Version | Previous Version | Graphics & Text | Print | Product List | Glossary On
Versions: 1 2 3 4 5 6 7 8 9 10 11 12 13 14 15 16 17
000
FTUS42 KMHX 051141
TAFISO
TAF
KISO 051141Z 0512/0612 24004KT P6SM SKC
     FM051900 23007KT P6SM VCTS SCT050CB
     FM060500 19005KT P6SM SCT010
      AMD LTD TO CLD VIS AND WIND=

USA.gov is the U.S. government's official web portal to all federal, state and local government web resources and services.